Location: Bennemühlen
(52.5740°N, 9.7135°E)
Time: 08:26:22
(UTC+00:00)

ISS - Pass Details

Date: 26 January 2026
Orbit: 413 x 429 km, 51.6° (Epoch: 11 February)

Event Time Altitude Azimuth Distance (km) Brightness Sun altitude
Rises 18:33:23 0° 280° (W) 2,368 1.4 -23.6°
Reaches altitude 10° 18:35:56 10° 260° (W) 1,504 0.1 -24.0°
Maximum altitude 18:38:16 18° 216° (SW) 1,129 -1.2 -24.4°
Enters shadow 18:38:39 17° 207° (SSW) 1,141 -1.3 -24.4°
